TimeHST,TemperatureF,Dew PointF,Humidity,Sea Level PressureIn,VisibilityMPH,Wind Direction,Wind SpeedMPH,Gust SpeedMPH,PrecipitationIn,Events,Conditions,WindDirDegrees,DateUTC
12:56 AM,68.0,65.8,93,30.03,10.0,ENE,3.5,-,N/A,,Clear,70,2013-05-23 10:56:00
1:56 AM,68.0,68.0,100,30.02,10.0,ENE,3.5,-,N/A,,Clear,60,2013-05-23 11:56:00
2:56 AM,68.0,68.0,100,30.01,10.0,Calm,Calm,-,N/A,,Clear,0,2013-05-23 12:56:00
3:43 AM,68.0,68.0,100,30.07,2.0,Calm,Calm,-,N/A,,Clear,0,2013-05-23 13:43:00
3:56 AM,66.9,66.9,100,30.01,1.5,Calm,Calm,-,N/A,,Clear,0,2013-05-23 13:56:00
4:01 AM,66.2,66.2,100,30.07,5.0,Calm,Calm,-,N/A,,Clear,0,2013-05-23 14:01:00
4:56 AM,66.9,66.9,100,30.01,10.0,ENE,3.5,-,N/A,,Clear,60,2013-05-23 14:56:00
5:56 AM,66.9,66.9,100,30.02,10.0,Calm,Calm,-,N/A,,Clear,0,2013-05-23 15:56:00
6:56 AM,70.9,70.0,97,30.04,10.0,North,3.5,-,N/A,,Clear,10,2013-05-23 16:56:00
7:56 AM,77.0,66.9,71,30.05,10.0,Variable,3.5,-,N/A,,Clear,0,2013-05-23 17:56:00
8:56 AM,81.9,64.9,56,30.05,10.0,Variable,3.5,-,N/A,,Clear,0,2013-05-23 18:56:00
9:20 AM,80.6,69.8,70,30.12,10.0,SW,6.9,-,N/A,,Mostly Cloudy,230,2013-05-23 19:20:00
9:56 AM,77.9,68.9,74,30.05,10.0,SSW,3.5,-,N/A,,Mostly Cloudy,210,2013-05-23 19:56:00
10:34 AM,77.0,69.8,78,30.12,10.0,South,6.9,-,N/A,,Mostly Cloudy,170,2013-05-23 20:34:00
10:56 AM,78.8,69.8,74,30.11,10.0,South,8.1,-,N/A,,Overcast,180,2013-05-23 20:56:00
11:45 AM,82.4,68.0,62,30.10,10.0,NNE,15.0,-,N/A,,Scattered Clouds,30,2013-05-23 21:45:00
11:56 AM,81.9,68.0,63,30.04,10.0,NE,13.8,-,N/A,,Clear,40,2013-05-23 21:56:00
12:56 PM,83.8,68.0,59,30.01,10.0,NE,18.4,23.0,N/A,,Clear,40,2013-05-23 22:56:00
1:56 PM,82.9,66.9,58,30.00,10.0,NE,17.3,-,N/A,,Clear,40,2013-05-23 23:56:00
2:56 PM,83.8,65.8,55,29.99,10.0,NE,17.3,-,N/A,,Clear,50,2013-05-24 00:56:00
3:56 PM,81.9,65.8,58,29.98,10.0,NE,16.1,23.0,N/A,,Clear,40,2013-05-24 01:56:00
4:56 PM,81.0,66.9,62,29.98,10.0,NE,18.4,-,N/A,,Partly Cloudy,50,2013-05-24 02:56:00
5:56 PM,77.9,65.8,66,29.99,10.0,ENE,15.0,-,N/A,,Clear,60,2013-05-24 03:56:00
6:56 PM,73.9,64.9,73,30.00,10.0,NE,16.1,23.0,N/A,,Clear,40,2013-05-24 04:56:00
7:56 PM,72.9,66.9,82,30.01,10.0,East,6.9,-,N/A,,Clear,100,2013-05-24 05:56:00
8:56 PM,72.0,65.8,81,30.03,10.0,East,8.1,-,N/A,,Partly Cloudy,80,2013-05-24 06:56:00
9:56 PM,72.9,68.0,85,30.05,10.0,NNE,10.4,-,N/A,,Mostly Cloudy,30,2013-05-24 07:56:00
10:12 PM,71.6,66.2,83,30.12,10.0,NNE,8.1,-,N/A,,Scattered Clouds,30,2013-05-24 08:12:00
10:56 PM,70.9,66.9,87,30.06,10.0,NNE,6.9,-,N/A,,Partly Cloudy,30,2013-05-24 08:56:00
11:56 PM,70.0,66.9,90,30.06,10.0,ENE,5.8,-,N/A,,Clear,70,2013-05-24 09:56:00